Weather in Zelenogorskiy

Russia / Tver Oblast     57°30′20″N   34°33′50″E
temp.,
°C
wind,
m/s
gust,
m/s
humid.,
%
clouds,
%
prec.,
mm/h
press.,
hPa
HPBL,
m
27 october, wed
wed2700:00+3sw31185100 0.0 1014393
03:00+2sw41186100 0.0 1012408
06:00+3sw41188100 0.0 1011416
09:00+4sw41291100 0.1 1009556
12:00+5wsw51292100 0.3 1010758
15:00+6w51284100 0.3 1010965
18:00+6w51179100 0.0 1011774
21:00+6wsw41081100 0.0 1011623
28 october, thu
thu2800:00+5sw41186100 0.0 1010554
03:00+5ssw51393100 2.3 1006881
06:00+7wsw51493100 1.5 1004806
09:00+9wnw51185100 2.0 1006945
12:00+7wnw51092100 0.3 1010961
15:00+6nnw4885100 0.4 1015854
18:00+6nnw2688100 0.1 1019308
21:00+5nnw1190100 0.1 102217
29 october, fri
fri2900:00+4sw1193100 0.0 102314
03:00+4ssw2888100 0.0 1024219
06:00+5ssw41184100 0.0 1023398
09:00+6ssw51484100 0.3 1022568
12:00+8sw41289100 0.0 1022627
15:00+10wsw4128324 0.0 1022679
18:00+9sw412915 0.0 1022420
21:00+8sw4139468 0.0 1023448
30 october, sat
sat3000:00+10sw51390100 0.0 1023520
03:00+9sw4139366 0.0 1023522
06:00+10sw4138930 0.0 1023533
09:00+9sw4129365 0.0 1024493
12:00+11sw41183100 0.0 1024527
15:00+11sw41171100 0.0 1024560
18:00+9ssw4127797 0.0 1024422
21:00+7sw4137783 0.0 1024424
31 october, sun
sun3100:00+7sw4128251 0.0 1024411
03:00+6ssw3118723 0.0 1024385
06:00+6sw311918 0.0 1023352
09:00+6sw3109142 0.0 1024342
12:00+9sw397547 0.0 1023415
15:00+10ssw397317 0.0 1023525
18:00+7s3108344 0.0 1022323
21:00+6ssw3118599 0.0 1022369